Location: Im Fang
(46.6019°N, 7.2397°E)
Time: 03:28:50
(UTC+00:00)

Lacrosse 5 - Pass Details

Date: 08 December 2019
Orbit: 717 x 722 km, 57.0° (Epoch: 10 January)

Event Time Altitude Azimuth Distance (km) Brightness Sun altitude
Exits shadow 03:23:38 13° 137° (SE) 1,993 4.5 -36.5°
Drops below altitude 10° 03:24:11 10° 137° (SE) 2,196 4.7 -36.4°
Sets 03:26:33 0° 136° (SE) 3,114 5.6 -36.0°
